Regional Weather Roundup
Issued by NWS

Home | Current Version | Previous Version | Graphics & Text | Print | Product List | Glossary On
Versions: 1 2 3 4 5 6 7 8 9 10 11 12 13 14 15 16 17 18 19 20 21 22 23 24 25 26 27 28 29 30 31 32 33 34 35 36 37 38 39 40 41 42 43 44 45 46 47 48 49 50
000
ASUS43 KDTX 241610
RWRMI
MICHIGAN HOURLY REGIONAL WEATHER ROUNDUP
NATIONAL WEATHER SERVICE DETROIT/PONTIAC MI
ISSUED BY NATIONAL WEATHER SERVICE GRAND RAPIDS MI
1200 PM EDT WED MAY 24 2017

NOTE: "FAIR" INDICATES FEW OR NO CLOUDS BELOW 12,000 FEET WITH NO
SIGNIFICANT WEATHER AND/OR OBSTRUCTION TO VISIBILITY.

MIZ047>049-052>055-059>063-066>070-074>076-081>083-241700-
SOUTHEAST LOWER MICHIGAN

CITY           SKY/WX    TMP DP  RH WIND       PRES   REMARKS
ADRIAN         FAIR      66  58  75 E9        29.56F
ALMA           CLOUDY    61  56  84 NE7G20    29.62F
ANN ARBOR      CLOUDY    66  57  72 E10G18    29.57F
BAD AXE        FAIR      63  55  75 NE10      29.65F
DETROIT CITY   CLOUDY    62  56  80 E9        29.61S
DETROIT        CLOUDY    65  57  75 E13       29.58F
FLINT          PTSUNNY   69  55  60 E14       29.59F
GROSSE ILE     CLOUDY    64  57  80 E6        29.58F
HILLSDALE      PTSUNNY   66  55  68 E7        29.55F
HOWELL         DRIZZLE   65  55  69 E7        29.58S

CITY           SKY/WX    TMP DP  RH WIND       PRES   REMARKS
JACKSON        PTSUNNY   66  56  70 E10       29.56F
LANSING        CLOUDY    63  54  72 NE14      29.58F
MASON          CLOUDY    62  56  83 NE6       29.58F
MONROE         CLOUDY    63  56  80 E9G16     29.57F
MT. CLEMENS    PTSUNNY   63  58  81 SE8       29.60F
PONTIAC        PTSUNNY   68  55  63 E9        29.58F
PORT HOPE        N/A     52  49  89 NE15      29.66S
PORT HURON     PTSUNNY   66  54  63 E9        29.62F
TRI CITIES     PTSUNNY   59  55  87 NE16      29.63F
YPSILANTI      CLOUDY    68  58  70 E15       29.58F
$$
MIZ043>046-050>051-056>058-064>065-071>073-077>080-241700-
SOUTHWEST LOWER MICHIGAN

CITY           SKY/WX    TMP DP  RH WIND       PRES   REMARKS
BATTLE CREEK   FAIR      66  56  70 NE7       29.56F
BENTON HARBOR  FAIR      68  54  60 VRB6      29.53F
BIG RAPIDS     CLOUDY    60  52  75 SE6G16    29.64R
COLDWATER      LGT RAIN  62  56  82 E6        29.56R
HOLLAND        PTSUNNY   64  54  69 E12G18    29.57F
GRAND RAPIDS   PTSUNNY   64  56  75 NE13      29.58F
KALAMAZOO      FAIR      69  53  56 VRB6      29.56F
MARSHALL       CLOUDY    62  55  76 E3        29.56S
MOUNT PLEASANT FAIR      63  55  74 NE12G18   29.61F
MUSKEGON       CLOUDY    63  55  75 NE10      29.59F
STURGIS        PTSUNNY   68  53  60 E12       29.53F
$$
MIZ016>042-241700-
NORTHERN LOWER MICHIGAN

CITY           SKY/WX    TMP DP  RH WIND       PRES   REMARKS
ALPENA         CLOUDY    56  52  86 E10       29.73F
BEAVER ISLAND  DRIZZLE   49  49  97 E9        29.74S
BELLAIRE       FAIR      59  54  83 NE6       29.69F
CADILLAC       PTSUNNY   60  53  76 NE15      29.66F
CHARLEVOIX     CLOUDY    54  54 100 E8        29.73F
GAYLORD        PTSUNNY   56  51  84 NE9       29.71F
HOUGHTON LAKE  PTSUNNY   58  54  86 NE12      29.68F
MANISTEE       PTSUNNY   60  55  83 NE8       29.65F
OSCODA         CLOUDY    55  52  88 N13       29.70S
PELLSTON       CLOUDY    52  49  89 E6        29.75R
TRAVERSE CITY  FOG       54  52  93 CALM      29.68S VSB 1
LUDINGTON      PTSUNNY   60  55  83 NE5       29.64F
$$
MIZ007>008-015-241700-
EASTERN UPPER MICHIGAN

CITY           SKY/WX    TMP DP  RH WIND       PRES   REMARKS
KINROSS        LGT RAIN  53  50  89 E10       29.77S
MACKINAC ISLAN CLOUDY    49  49 100 E8        29.75S
NEWBERRY       CLOUDY    54  53  96 E5        29.76S
S. S. MARIE    CLOUDY    55  50  83 VRB7      29.76F
$$
MIZ004>006-011>014-085-241700-
CENTRAL UPPER MICHIGAN

CITY           SKY/WX    TMP DP  RH WIND       PRES   REMARKS
MANISTIQUE     CLOUDY    54  51  89 E8        29.74S
ESCANABA       CLOUDY    50  48  93 NE7       29.74S
MENOMINEE      CLOUDY    51  48  89 NE10      29.73S
SAWYER-GWINN   CLOUDY    45  43  93 NE7       29.77S FOG
$$
MIZ001>003-009>011-084-241700-
WESTERN UPPER MICHIGAN

CITY           SKY/WX    TMP DP  RH WIND       PRES   REMARKS
IRON MOUNTAIN  CLOUDY    49  45  86 NE8       29.74S
HOUGHTON       PTSUNNY   51  43  74 E9        29.80S
COPPER HARBOR    N/A     45  39  79 NE5       29.81F
IRONWOOD       CLOUDY    54  44  69 N9        29.79F
$$

ABBREVIATIONS USED IN REMARKS
   TC - TEMPERATURE IN CELSIUS
  WCI - WIND CHILL INDEX
   HX - HEAT INDEX
  VSB - VISIBILITY





USA.gov is the U.S. government's official web portal to all federal, state and local government web resources and services.